Regional Weather Roundup
Issued by NWS Wakefield, VA

Home | Current Version | Previous Version | Graphics & Text | Print | Product List | Glossary On
Versions: 1 2 3 4 5 6 7 8 9 10 11 12 13 14 15 16 17 18 19 20 21 22 23 24 25 26 27 28 29 30 31 32 33 34 35 36 37 38 39 40 41 42 43 44 45 46 47
000
ASUS41 KAKQ 271814
RWRAKQ

REGIONAL WEATHER ROUNDUP
NATIONAL WEATHER SERVICE WAKEFIELD VA
200 PM EDT THU AUG 27 2015

Note: "fair" indicates few or no clouds below 12,000 feet with no
significant weather and/or obstructions to visibility. * = Denotes
station may not report precipitation (e.g., rain,snow,etc.),
thunder or fog.

VAZ042-051-052>054-056-271900-
NORTHERN VIRGINIA

CITY           SKY/WX    TMP DP  RH WIND       PRES   REMARKS
WASH NATIONAL  PTSUNNY   80  54  40 N7        30.11F
DULLES         PTSUNNY   78  53  41 N8        30.12F
FORT BELVOIR   MOSUNNY   80  55  41 NW6       30.11F
QUANTICO       PTSUNNY   79  55  43 VRB5      30.12F
FREDERICKSBRG* NOT AVBL
STAFFORD*      NOT AVBL
WARRENTON      NOT AVBL
CULPEPER*      NOT AVBL
MANASSAS*      NOT AVBL
LEESBURG*      NOT AVBL
WINCHESTER     NOT AVBL
FRONT ROYAL*   NOT AVBL
LURAY*         NOT AVBL
$$

VAZ048-049-060>072-079>083-271900-
CENTRAL AND SOUTH CENTRAL VIRGINIA

CITY           SKY/WX    TMP DP  RH WIND       PRES   REMARKS
RICHMOND       PTSUNNY   81  59  47 E5        30.10F
CHESTERFIELD*  FAIR      82  52  34 CALM      30.11F
PETERSBURG*    NOT AVBL
HANOVER        SUNNY     81  57  43 N6        30.12F
TAPPAHANNOCK*  NOT AVBL
QUINTON*       NOT AVBL
CHARLOTTSVILLE MOSUNNY   78  56  46 S8        30.12F
GORDONSVILLE*  NOT AVBL
ORANGE*        NOT AVBL
LOUISA*        NOT AVBL
BUMPASS*       NOT AVBL
FARMVILLE*     NOT AVBL
CREWE*         NOT AVBL
FORT PICKETT*  NOT AVBL
CHASE CITY*    NOT AVBL
CLARKSVILLE*   NOT AVBL
SOUTH HILL*    NOT AVBL
LAWRENCEVILLE* FAIR      79  63  57 N7        30.10F
EMPORIA*       NOT AVBL
$$

VAZ088>098-271900-
SOUTHEAST VIRGINIA

CITY           SKY/WX    TMP DP  RH WIND       PRES   REMARKS
NORFOLK        CLOUDY    79  57  46 N10       30.09F
VIRGINIA BEACH CLOUDY    82  60  47 NE13      30.08F
NORFOLK NAVAL  CLOUDY    79  59  50 NE10      30.10F
WEST POINT*    NOT AVBL
SALUDA*        NOT AVBL
NEWPORT NEWS   CLOUDY    79  60  52 N8        30.10F
LANGLEY AFB    CLOUDY    78  61  55 NE10      30.08F
FORT EUSTIS    PTSUNNY   80  59  48 E6        30.08F
WILLIAMSBURG*  NOT AVBL
HR EXEC AP*      N/A     81  57  44 NE8       30.10F
FRANKLIN*      NOT AVBL
WAKEFIELD      PTSUNNY   80  61  52 VRB5      30.09F
$$

VAZ020-022-025-037-045-271900-
WEST CENTRAL AND SOUTHWEST VIRGINIA

CITY           SKY/WX    TMP DP  RH WIND       PRES   REMARKS
STAUNTON*      NOT AVBL
WAYNESBORO*    NOT AVBL
HOT SPRINGS VA NOT AVBL
LYNCHBURG      PTSUNNY   78  56  46 MISG      30.13F
DANVILLE       SUNNY     81  58  45 VRB3      30.10F
SOUTH BOSTON*  NOT AVBL
MARTINSVILLE   NOT AVBL
ROANOKE        PTSUNNY   76  57  51 VRB3      30.15F
BLACKSBURG     NOT AVBL
DUBLIN*        NOT AVBL
MARION*        NOT AVBL
HILLSVILLE*    NOT AVBL
RICHLANDS*     NOT AVBL
WISE*          SUNNY     72  54  53 N6        30.20F
ABINGDON*      NOT AVBL
$$

MDZ021>025-VAZ099-100-271900-
SOUTHERN MARYLAND AND THE DELMARVA PENINSULA

CITY           SKY/WX    TMP DP  RH WIND       PRES   REMARKS
PATUXENT RIVER PTSUNNY   76  58  53 NE10      30.10F
BAY BRIDGE APT   N/A     75  54  46 NW7       30.11F
LEONARDTOWN    MOSUNNY   77  54  44 CALM      30.12S
DOVER          MOSUNNY   78  59  51 VRB7      30.08F
GEORGETOWN     PTSUNNY   78  57  48 VRB3      30.09F
EASTON         PTSUNNY   79  57  47 NW8       30.13F
CAMBRIDGE      MOSUNNY   77  55  47 NW7       30.09F
SALISBURY      PTSUNNY   76  58  53 NW8       30.09F
OCEAN CITY     CLOUDY    78  56  46 N5        30.08F
WALLOPS ISLAND CLOUDY    79  57  46 N8        30.09F
ACCOMACK*      NOT AVBL
$$

NCZ012>017-030>032-271900-
NORTH CENTRAL AND EASTERN NORTH CAROLINA

CITY           SKY/WX    TMP DP  RH WIND       PRES   REMARKS
ROANOKE RAPIDS NOT AVBL
RALEIGH        PTSUNNY   81  60  48 E9G16     30.08F
ELIZABETH CITY CLOUDY    77  62  59 NE13      30.08F
AHOSKIE*       NOT AVBL
EDENTON*       NOT AVBL
CURRITUCK*     NOT AVBL
KILL DEVIL HLS NOT AVBL
MANTEO         NOT AVBL
CAPE HATTERAS  CLOUDY    78  70  76 NE10G24   30.02F
TARBORO*       NOT AVBL
GOLDSBORO      CLOUDY    76  66  71 NE15      30.05F
WASHINGTON     NOT AVBL
GREENVILLE     NOT AVBL
NEW BERN       CLOUDY    78  70  76 NE10      30.04F
WILMINGTON     CLOUDY    80  71  74 NE10      30.02S
$$

VAZ048-271900-
ELSEWHERE

CITY           SKY/WX    TMP DP  RH WIND       PRES   REMARKS
HARRISBURG PA  PTSUNNY   74  54  49 NW10      30.11F
BALTIMORE      MOSUNNY   79  53  40 W9        30.10F
ANNAPOLIS      MOSUNNY   76  57  51 SE7       30.10F
ANDREWS AFB    MOSUNNY   80  53  38 NW9       30.10F
PHILADELPHIA   PTSUNNY   80  51  36 N6        30.08F
GREENSBORO     MOSUNNY   80  59  48 NE9G17    30.10F
ROCKY MOUNT    PTSUNNY   84  60  44 NE9       30.07F
$$

VAZ100-271900-
MARINE

STATION/POSITION TIME  TEMP    WIND        PRES    WAVE   SWELL
                       AIR SEA DIR/SP/G            HT/PER HT/PER
                 (UTC) (F)     (DEG/KT/KT) (MB)    (FT/S) (FT/S)
BRANDYWINE LGT   1706   71 76  330/  4/  6 1019.3F
CAPE MAY NJ      1706   74 79  300/  5/  9 1018.7F
LEWES DE         1706   71 75  340/  8/  9 1019.1F
15NM E FENWICK I 1750   72 78  320/ 12/ 14 1019.0F   3/ 9   2/ 9
OCEAN-CITY-INLET 1706   76 77   30/  4/  6 1018.2F
WACHAPREAGUE VA  1706   77 78  350/  7/ 11 1019.3F
THOMAS POINT MD  1700   71 79   50/  6/  7 1020.4
GOOSES REEF MD   1800   74 80   30/  6/ 10 1020.4F
COVE POINT MD    1706   72     360/  8/ 12 1020.5F
SOLOMONS ISLAND  1700      81                N/A
BISHOPS HEAD MD  1706   76 76   30/  4/  8 1018.5F
PINEY POINT MD   1700          320/  6/  8   N/A
POTOMAC MD       1800   75 80   40/ 10/ 12 1018.4F   1
CAMBRIDGE MD     1706   74 80  310/  7/ 10 1018.6F
LEWISETTA VA     1706   74 78   10/  4/  7 1019.1F
RAPPAHANNOCK LGT 1700           10/ 11/ 12 1020.0F
STINGRAY PT      1800   75 80   30/  8/ 12 1019.6F   1/ 3
YORK RVR RNG VA  1706   74      50/ 12/ 15 1018.8F
YORKTOWN VA      1706   75 80   60/  8/ 10 1019.1F
JAMESTOWN VA     1800   77 82   70/  2/  8   N/A
DOMINION TERM VA 1706   76      50/  8/ 13 1019.2F
KIPTOPEKE VA     1700      79  310/  7/ 11   N/A
CAPE HENRY VA    1706   75      40/ 11/ 15   N/A
CHESAPEAKE LGHT  1700   75      30/ 15/ 17 1019.7F
WILLOUBY STN VA  1706   75      30/ 11/ 13 1020.3F
CAPE HENRY BUOY  1728      79                N/A     4/10   2/11
1ST LANDING BUOY 1800      79              1018.7F   2/ 4
CAPE CHARLES BUO 1726      79                N/A     4/10   3/10
OFFSHORE WE BUOY 1711      78                N/A     4/10   3/10
64NM E OF VA BCH 1750   77 81   40/ 12/ 16 1018.0F   4/10   3/10
DUCK PIER NC     1706   77 79   40/ 19/ 21 1017.7F
44100 DUCK FRF   1724      79                N/A     5/ 5   2/12
44056 DUCK FRF   1711      79                N/A     5/ 5   2/11
OREGON INLET NC  1700   78 79   30/ 15/ 19 1017.4F
HATTERAS NC      1700   78 81   40/ 13/ 16 1016.4F
DIAMOND SHLS NC  1750   78 82   80/ 17/ 19 1015.9F   5/ 9   3/ 9
CAPE LOOKOUT NC  1800   80      40/ 19/ 21 1015.7F
$$



USA.gov is the U.S. government's official web portal to all federal, state and local government web resources and services.